"Pseudo-MPEC" for KUQN1KR

Created 2026 Sep 2 20:35:05 UT using Find_Orb

Click here for an explanation of pseudo-MPECs

 
 Astrometry: 
     KUQN1KR*!C2026 09 01.99104 21 16 32.94 -17 27 21.8    ~92KZ 21.9 iWNEOCPW84
     KUQN1KR !C2026 09 01.99866 21 16 32.58 -17 27 06.7    ~92KZ 22.1 iWNEOCPW84
     KUQN1KR !C2026 09 02.08236 21 16 28.39 -17 24 18.9    ~92KZ 21.7 iWNEOCPW84

Station data:
(W84) Cerro Tololo-DECam  (S30.169594 W70.806420)  Chile.  Observer F. Valdes.
    Measurer S. Deen. 4.0-m reflector + CCD.

Orbital elements:  KUQN1KR
   Perihelion 2026 Jun 17.424056 +/- 49 TT = 10:10:38.4 (JD 2461208.924056)
Epoch 2026 Sep  2.0 TT = JDT 2461285.5   Earth MOID: 0.0380   Ma: 0.0471
M  27.184404059 +/- 26              (J2000 ecliptic)             AutoNEOCP
n   0.354999267 +/- 0.318           Peri.  252.143144 +/- 60
a   1.975381937 +/- 1.18            Node   335.054694 +/- 30
e   0.67375374 +/- 0.259            Incl.   13.824347 +/- 9
P   2.77637                H 23.03  G  0.15   U 12.0  SR
q 0.644460960 +/- 0.456    Q 3.306302913 +/- 45.4
From 3 observations 2026 Sept. 1-2 (2.2 hr); mean residual 0".06
Residuals in arcseconds: 
260901 W84  .06-  .07+    260901 W84  .07+  .08-    260902 W84  .01-  .01+    

Ephemerides (geocentric):
Date (UTC) HH   RA             Dec           delta  r     elong  mag " sig PA
---- --------  ------------   ------------  ------ ------ -----  --- --------
2026 09 02 21  21 15 56.650   -16 58 26.34  .35150 1.3379 156.1 22.3  382  97
2026 09 02 22  21 15 55.108   -16 57 06.75  .35206 1.3384 156.1 22.3  406  98
2026 09 02 23  21 15 53.574   -16 55 47.39  .35261 1.3388 156.1 22.3  429  99
2026 09 03 00  21 15 52.051   -16 54 28.25  .35316 1.3392 156.0 22.3  453  99
2026 09 03 01  21 15 50.536   -16 53 09.33  .35372 1.3397 156.0 22.3  477 100
2026 09 03 02  21 15 49.032   -16 51 50.64  .35427 1.3401 156.0 22.3  502 100
2026 09 03 03  21 15 47.537   -16 50 32.17  .35483 1.3406 155.9 22.3  527 101
2026 09 03 04  21 15 46.051   -16 49 13.93  .35538 1.3410 155.9 22.4  552 102
2026 09 03 05  21 15 44.574   -16 47 55.91  .35594 1.3415 155.8 22.4  578 103
2026 09 03 06  21 15 43.107   -16 46 38.10  .35649 1.3419 155.8 22.4  604 103
2026 09 03 07  21 15 41.649   -16 45 20.52  .35705 1.3424 155.8 22.4  631 104
2026 09 03 08  21 15 40.201   -16 44 03.15  .35761 1.3428 155.7 22.4  658 105
2026 09 03 09  21 15 38.761   -16 42 46.01  .35816 1.3432 155.7 22.4  686 106
2026 09 03 10  21 15 37.331   -16 41 29.08  .35872 1.3437 155.6 22.4  714 107
2026 09 03 11  21 15 35.910   -16 40 12.36  .35928 1.3441 155.6 22.4  743 107
2026 09 03 12  21 15 34.498   -16 38 55.86  .35983 1.3446 155.6 22.4  773 108
2026 09 03 13  21 15 33.096   -16 37 39.58  .36039 1.3450 155.5 22.4  803 109
2026 09 03 14  21 15 31.702   -16 36 23.50  .36095 1.3455 155.5 22.4  834 110
2026 09 03 15  21 15 30.318   -16 35 07.64  .36151 1.3459 155.4 22.4  866 111
2026 09 03 16  21 15 28.942   -16 33 51.99  .36206 1.3464 155.4 22.4  898 112
2026 09 03 17  21 15 27.576   -16 32 36.56  .36262 1.3468 155.4 22.4  932 113
2026 09 03 18  21 15 26.218   -16 31 21.33  .36318 1.3472 155.3 22.4  966 114
2026 09 03 19  21 15 24.869   -16 30 06.31  .36374 1.3477 155.3 22.4 1001 114
2026 09 03 20  21 15 23.529   -16 28 51.50  .36430 1.3481 155.3 22.4 1038 115
2026 09 03 21  21 15 22.199   -16 27 36.90  .36486 1.3486 155.2 22.4 1075 116
2026 09 03 22  21 15 20.876   -16 26 22.50  .36542 1.3490 155.2 22.4 1113 117
2026 09 03 23  21 15 19.563   -16 25 08.31  .36598 1.3495 155.1 22.4 1153 118
2026 09 04 00  21 15 18.259   -16 23 54.32  .36654 1.3499 155.1 22.4 1194 119
2026 09 04 01  21 15 16.963   -16 22 40.54  .36710 1.3504 155.1 22.5 1235 120
2026 09 04 02  21 15 15.676   -16 21 26.96  .36766 1.3508 155.0 22.5 1279 121
2026 09 04 03  21 15 14.398   -16 20 13.58  .36822 1.3512 155.0 22.5 1323 122
2026 09 04 04  21 15 13.128   -16 19 00.40  .36878 1.3517 154.9 22.5 1369 123
2026 09 04 05  21 15 11.867   -16 17 47.43  .36934 1.3521 154.9 22.5 1417 124
2026 09 04 06  21 15 10.614   -16 16 34.65  .36990 1.3526 154.9 22.5 1466 125
2026 09 04 07  21 15 09.370   -16 15 22.08  .37046 1.3530 154.8 22.5 1517 125
2026 09 04 08  21 15 08.135   -16 14 09.70  .37103 1.3535 154.8 22.5 1569 126
2026 09 04 09  21 15 06.908   -16 12 57.52  .37159 1.3539 154.7 22.5 1623 127
2026 09 04 10  21 15 05.690   -16 11 45.53  .37215 1.3543 154.7 22.5 1680 128
2026 09 04 11  21 15 04.480   -16 10 33.75  .37271 1.3548 154.7 22.5 1738 129
2026 09 04 12  21 15 03.278   -16 09 22.15  .37328 1.3552 154.6 22.5 1798 130
2026 09 04 13  21 15 02.085   -16 08 10.76  .37384 1.3557 154.6 22.5 1860 130
2026 09 04 14  21 15 00.900   -16 06 59.55  .37440 1.3561 154.6 22.5 1925 131
2026 09 04 15  21 14 59.724   -16 05 48.54  .37497 1.3566 154.5 22.5 1992 132
2026 09 04 16  21 14 58.556   -16 04 37.72  .37553 1.3570 154.5 22.5 2062 133
2026 09 04 17  21 14 57.396   -16 03 27.09  .37609 1.3574 154.4 22.5 2134 134
2026 09 04 18  21 14 56.245   -16 02 16.65  .37666 1.3579 154.4 22.5 2210 134
2026 09 04 19  21 14 55.101   -16 01 06.40  .37722 1.3583 154.4 22.5 2288 135
2026 09 04 20  21 14 53.966   -15 59 56.34  .37779 1.3588 154.3 22.5 2370 136